Location: Doverdale
(52.2833°N, 2.2000°W)
Time: 02:34:20
(UTC+00:00)

FALCON 9 DEB - Pass Details

Date: 29 October 2020
Orbit: 427 x 438 km, 53.0° (Epoch: 27 November)

Event Time Altitude Azimuth Distance (km) Brightness Sun altitude
Rises 18:25:18 0° 284° (WNW) 2,400 8.4 -15.9°
Reaches altitude 10° 18:27:25 10° 282° (WNW) 1,530 7.1 -16.2°
Maximum altitude 18:30:49 68° 200° (SSW) 464 3.2 -16.7°
Enters shadow 18:31:57 38° 128° (SE) 668 3.6 -16.9°
